Weather History for Nampa, ID

Change the Weather History Date:

Saturday, November 24, 2012

  Actual Average (KBOI) Record (KBOI)
Temperature  
Mean Temperature 36 °F 36 °F  
Max Temperature 41 °F 44 °F 62 °F (1949)
Min Temperature 32 °F 29 °F 0 °F (1993)
Degree Days  
Heating Degree Days 28 29  
Month to date heating degree days 569  
Since 1 July heating degree days 1075  
Cooling Degree Days 0 0  
Month to date cooling degree days 0  
Year to date cooling degree days 942  
Moisture  
Dew Point 35 °F    
Average Humidity 93    
Maximum Humidity 100    
Minimum Humidity 75    
Precipitation  
Precipitation 0.12 in 0.05 in 0.61 in (1984)
Month to date precipitation 1.06  
Year to date precipitation 9.89  
Snow  
Snow 0.00 in 0.10 in 4.00 in (1908)
Month to date snowfall 1.7  
Since 1 July snowfall 1.8  
Snow Depth -    
Sea Level Pressure  
Sea Level Pressure 30.19 in    
Wind  
Wind Speed 2 mph (WNW)    
Max Wind Speed 6 mph    
Max Gust Speed -    
Visibility 8 miles    
Events      
T = Trace of Precipitation, MM = Missing Value Source: NWS Daily Summary

Daily Weather History Graph

Daily Weather History Graph

Search for Another Location

Airport:

Trip Planner

Search our weather history database for the weather conditions in past years. The results will help you decide how hot, cold, wet, or windy it might be!

Date:

Astronomy

Nov. 24, 2012 Rise Set
Actual Time 7:52 AM MST 5:13 PM MST
Civil Twilight 7:20 AM MST 5:45 PM MST
Nautical Twilight 6:45 AM MST 6:20 PM MST
Astronomical Twilight 6:10 AM MST 6:54 PM MST
Moon 3:05 PM MST (11/24) 4:07 AM MST (11/24)
Length of Visible Light 10h 24m
Length of Day
9h 21m
Waxing Gibbous, 87% of the Moon is Illuminated
Nov 24
Waxing Gibbous
Nov 28
Full
Dec 6
Last Quarter
Dec 13
New
Dec 19
First Quarter

Hourly Weather History & Observations

Time (MST) Temp. Windchill Dew Point Humidity Pressure Visibility Wind Dir Wind Speed Gust Speed Precip Events Conditions
12:15 AM 33.8 °F - 32.0 °F 93% 30.29 in 10.0 mi Calm Calm - N/A   Clear
12:35 AM 33.8 °F - 32.0 °F 93% 30.28 in 10.0 mi Calm Calm - N/A   Clear
12:55 AM 33.8 °F 30.8 °F 32.0 °F 93% 30.28 in 10.0 mi SE 3.5 mph - N/A   Clear
1:15 AM 32.0 °F 28.7 °F 32.0 °F 100% 30.27 in 10.0 mi SE 3.5 mph - N/A   Clear
1:35 AM 32.0 °F 28.7 °F 32.0 °F 100% 30.26 in 10.0 mi ESE 3.5 mph - N/A   Clear
1:55 AM 32.0 °F 28.7 °F 32.0 °F 100% 30.25 in 10.0 mi SE 3.5 mph - N/A   Clear
2:15 AM 32.0 °F 28.7 °F 32.0 °F 100% 30.25 in 10.0 mi SE 3.5 mph - N/A   Clear
2:35 AM 32.0 °F - 30.2 °F 93% 30.25 in 10.0 mi Calm Calm - N/A   Clear
2:55 AM 32.0 °F - 32.0 °F 100% 30.25 in 10.0 mi Calm Calm - N/A   Clear
3:15 AM 32.0 °F 28.7 °F 30.2 °F 93% 30.25 in 10.0 mi SE 3.5 mph - N/A   Partly Cloudy
3:35 AM 32.0 °F - 32.0 °F 100% 30.25 in 10.0 mi Calm Calm - N/A   Scattered Clouds
3:55 AM 32.0 °F 28.7 °F 32.0 °F 100% 30.25 in 10.0 mi ESE 3.5 mph - N/A   Mostly Cloudy
4:15 AM 32.0 °F 27.5 °F 32.0 °F 100% 30.23 in 10.0 mi ESE 4.6 mph - N/A   Overcast
4:35 AM 32.0 °F 28.7 °F 28.4 °F 87% 30.23 in 10.0 mi SE 3.5 mph - N/A   Overcast
4:55 AM 32.0 °F - 30.2 °F 93% 30.23 in 10.0 mi Calm Calm - N/A   Overcast
5:15 AM 32.0 °F - 30.2 °F 93% 30.23 in 10.0 mi Calm Calm - N/A   Overcast
5:35 AM 32.0 °F - 28.4 °F 87% 30.23 in 10.0 mi Calm Calm - N/A   Overcast
5:55 AM 33.8 °F - 28.4 °F 81% 30.23 in 10.0 mi Calm Calm - N/A   Overcast
6:15 AM 33.8 °F 30.8 °F 30.2 °F 87% 30.22 in 10.0 mi South 3.5 mph - N/A   Overcast
6:55 AM 35.6 °F - 30.2 °F 81% 30.23 in 10.0 mi Calm Calm - N/A   Overcast
7:15 AM 35.6 °F 30.7 °F 30.2 °F 81% 30.23 in 10.0 mi South 5.8 mph - N/A   Overcast
7:35 AM 35.6 °F - 32.0 °F 87% 30.24 in 10.0 mi Calm Calm - N/A   Overcast
7:55 AM 35.6 °F - 32.0 °F 87% 30.24 in 10.0 mi Calm Calm - N/A   Overcast
8:15 AM 35.6 °F - 32.0 °F 87% 30.24 in 10.0 mi Calm Calm - N/A   Overcast
8:35 AM 35.6 °F - 32.0 °F 87% 30.25 in 10.0 mi Calm Calm - N/A   Overcast
8:55 AM 37.4 °F 34.9 °F 32.0 °F 81% 30.24 in 10.0 mi SE 3.5 mph - N/A   Overcast
9:15 AM 37.4 °F 33.8 °F 32.0 °F 81% 30.25 in 10.0 mi SW 4.6 mph - N/A   Overcast
9:35 AM 37.4 °F - 32.0 °F 81% 30.25 in 10.0 mi Calm Calm - N/A   Overcast
9:55 AM 37.4 °F - 32.0 °F 81% 30.26 in 10.0 mi Calm Calm - N/A   Overcast
10:15 AM 39.2 °F - 32.0 °F 75% 30.26 in 10.0 mi Calm Calm - N/A   Overcast
10:35 AM 39.2 °F - 32.0 °F 75% 30.26 in 10.0 mi Calm Calm - N/A   Overcast
10:55 AM 39.2 °F - 32.0 °F 75% 30.26 in 9.0 mi Calm Calm - N/A   Overcast
11:15 AM 39.2 °F - 33.8 °F 81% 30.26 in 10.0 mi Calm Calm - N/A   Overcast
11:35 AM 39.2 °F 37.0 °F 37.4 °F 93% 30.26 in 7.0 mi NNW 3.5 mph - N/A   Overcast
11:55 AM 39.2 °F 37.0 °F 35.6 °F 87% 30.25 in 10.0 mi North 3.5 mph - N/A   Overcast
12:15 PM 39.2 °F - 37.4 °F 93% 30.24 in 5.0 mi Calm Calm - N/A   Scattered Clouds
12:35 PM 39.2 °F - 37.4 °F 93% 30.23 in 5.0 mi Calm Calm - 0.01 in   Clear
12:55 PM 39.2 °F - 37.4 °F 93% 30.23 in 10.0 mi Calm Calm - 0.01 in   Mostly Cloudy
1:15 PM 39.2 °F - 37.4 °F 93% 30.22 in 10.0 mi Calm Calm - N/A   Scattered Clouds
1:55 PM 41.0 °F - 39.2 °F 93% 30.21 in 10.0 mi Calm Calm - N/A   Overcast
2:15 PM 41.0 °F - 39.2 °F 93% 30.20 in 10.0 mi Calm Calm - N/A   Overcast
2:35 PM 41.0 °F 39.0 °F 37.4 °F 87% 30.19 in 10.0 mi SW 3.5 mph - N/A   Overcast
2:55 PM 41.0 °F - 37.4 °F 87% 30.18 in 10.0 mi Calm Calm - N/A   Overcast
3:15 PM 41.0 °F - 37.4 °F 87% 30.18 in 10.0 mi Calm Calm - N/A   Overcast
3:35 PM 41.0 °F - 37.4 °F 87% 30.17 in 10.0 mi Calm Calm - N/A   Overcast
3:55 PM 41.0 °F 38.0 °F 39.2 °F 93% 30.17 in 8.0 mi West 4.6 mph - N/A   Overcast
4:15 PM 41.0 °F 38.0 °F 39.2 °F 93% 30.17 in 10.0 mi West 4.6 mph - N/A   Overcast
4:35 PM 41.0 °F 39.0 °F 37.4 °F 87% 30.17 in 8.0 mi West 3.5 mph - N/A   Overcast
4:55 PM 41.0 °F - 39.2 °F 93% 30.16 in 5.0 mi Calm Calm - N/A   Overcast
5:15 PM 41.0 °F - 39.2 °F 93% 30.16 in 5.0 mi Calm Calm - 0.01 in   Overcast
5:35 PM 39.2 °F 35.9 °F 39.2 °F 100% 30.15 in 6.0 mi North 4.6 mph - 0.01 in   Overcast
5:55 PM 39.2 °F 37.0 °F 39.2 °F 100% 30.15 in 4.0 mi North 3.5 mph - 0.01 in   Overcast
6:15 PM 39.2 °F 37.0 °F 39.2 °F 100% 30.14 in 4.0 mi NNW 3.5 mph - 0.01 in   Overcast
6:35 PM 39.2 °F - 39.2 °F 100% 30.13 in 5.0 mi Calm Calm - 0.02 in   Mostly Cloudy
6:55 PM 39.2 °F 37.0 °F 39.2 °F 100% 30.12 in 5.0 mi WNW 3.5 mph - 0.02 in   Overcast
7:15 PM 39.2 °F 37.0 °F 39.2 °F 100% 30.12 in 5.0 mi NW 3.5 mph - N/A   Overcast
7:35 PM 39.2 °F 37.0 °F 39.2 °F 100% 30.11 in 5.0 mi NNW 3.5 mph - N/A   Overcast
7:55 PM 39.2 °F 37.0 °F 39.2 °F 100% 30.11 in 5.0 mi NW 3.5 mph - 0.01 in   Overcast
8:15 PM 39.2 °F - 39.2 °F 100% 30.11 in 6.0 mi Calm Calm - N/A   Overcast
8:35 PM 39.2 °F 35.9 °F 39.2 °F 100% 30.10 in 5.0 mi WNW 4.6 mph - N/A   Overcast
8:55 PM 39.2 °F - 39.2 °F 100% 30.09 in 6.0 mi Calm Calm - 0.01 in   Overcast
9:15 PM 39.2 °F - 39.2 °F 100% 30.09 in 5.0 mi Calm Calm - N/A   Overcast
9:35 PM 39.2 °F 37.0 °F 39.2 °F 100% 30.09 in 5.0 mi West 3.5 mph - N/A   Overcast
9:55 PM 39.2 °F 37.0 °F 39.2 °F 100% 30.08 in 5.0 mi NW 3.5 mph - N/A   Overcast
10:15 PM 39.2 °F 37.0 °F 39.2 °F 100% 30.07 in 5.0 mi North 3.5 mph - N/A   Overcast
10:35 PM 39.2 °F 37.0 °F 39.2 °F 100% 30.07 in 4.0 mi North 3.5 mph - 0.01 in   Overcast
10:55 PM 39.2 °F 37.0 °F 39.2 °F 100% 30.08 in 4.0 mi NW 3.5 mph - 0.01 in   Overcast
11:15 PM 39.2 °F 37.0 °F 39.2 °F 100% 30.08 in 3.0 mi WNW 3.5 mph - 0.01 in   Overcast
11:35 PM 39.2 °F 37.0 °F 39.2 °F 100% 30.08 in 3.0 mi NW 3.5 mph - 0.02 in   Overcast
11:55 PM 39.2 °F 37.0 °F 39.2 °F 100% 30.07 in 3.0 mi WNW 3.5 mph - 0.05 in   Overcast